When you browse on this site, cookies collect data to enhance your experience and personalize the content and advertising you see.
Visit our Privacy Policy to learn more. By continuing to use the site, you agree to this use of cookies and data.
  • In Portugal
  • List of Countries
  • For 7 days
  • Water Temperature
  • Weather Map
  • Weather Widgets
  • user-avatar
    Login

    Hourly Weather Zuwara

    Today, 10 April, Friday

    Time Temperature Precipitation Wind Pressure Humidity
    00:00 +15°C° 0 mm 5 mps 766 mmHg 51%
    01:00 +15°C° 0 mm 5 mps 766 mmHg 51%
    02:00 +15°C° 0 mm 5 mps 766 mmHg 51%
    03:00 +15°C° 0 mm 5 mps 765 mmHg 51%
    04:00 +15°C° 0 mm 5 mps 765 mmHg 51%
    05:00 +15°C° 0 mm 5 mps 765 mmHg 49%
    06:00 +15°C° 0 mm 5 mps 766 mmHg 48%
    07:00 +15°C° 0 mm 4 mps 766 mmHg 46%
    08:00 +18°C° 0 mm 4 mps 766 mmHg 42%
    09:00 +19°C° 0 mm 4 mps 766 mmHg 38%
    10:00 +20°C° 0 mm 3 mps 766 mmHg 34%
    11:00 +21°C° 0 mm 4 mps 766 mmHg 34%
    12:00 +22°C° 0 mm 4 mps 765 mmHg 34%
    13:00 +22°C° 0 mm 4 mps 765 mmHg 34%
    14:00 +22°C° 0 mm 5 mps 765 mmHg 37%
    15:00 +21°C° 0 mm 6 mps 764 mmHg 40%
    16:00 +21°C° 0 mm 7 mps 764 mmHg 42%
    17:00 +20°C° 0 mm 7 mps 764 mmHg 46%
    18:00 +20°C° 0 mm 8 mps 764 mmHg 49%
    19:00 +18°C° 0 mm 8 mps 764 mmHg 53%
    20:00 +18°C° 0 mm 8 mps 765 mmHg 52%
    21:00 +18°C° 0 mm 9 mps 765 mmHg 52%
    22:00 +18°C° 0 mm 9 mps 765 mmHg 51%
    23:00 +17°C° 0 mm 8 mps 765 mmHg 49%

    Tomorrow, 11 April, Saturday

    Time Temperature Precipitation Wind Pressure Humidity
    00:00 +17°C° 0 mm 7 mps 765 mmHg 47%
    01:00 +17°C° 0 mm 6 mps 765 mmHg 46%
    02:00 +17°C° 0 mm 6 mps 764 mmHg 46%
    03:00 +17°C° 0 mm 6 mps 764 mmHg 46%
    04:00 +17°C° 0 mm 6 mps 764 mmHg 46%
    05:00 +17°C° 0 mm 5 mps 764 mmHg 47%
    06:00 +17°C° 0 mm 5 mps 764 mmHg 47%
    07:00 +18°C° 0 mm 4 mps 764 mmHg 48%
    08:00 +19°C° 0 mm 3 mps 765 mmHg 46%
    09:00 +20°C° 0 mm 3 mps 765 mmHg 44%
    10:00 +21°C° 0 mm 2 mps 765 mmHg 42%
    11:00 +21°C° 0 mm 3 mps 765 mmHg 41%
    12:00 +22°C° 0 mm 4 mps 765 mmHg 41%
    13:00 +23°C° 0 mm 5 mps 764 mmHg 40%
    14:00 +22°C° 0 mm 6 mps 764 mmHg 43%
    15:00 +22°C° 0 mm 7 mps 764 mmHg 45%
    16:00 +21°C° 0 mm 8 mps 763 mmHg 48%
    17:00 +20°C° 0 mm 8 mps 763 mmHg 53%
    18:00 +18°C° 0 mm 9 mps 764 mmHg 57%
    19:00 +18°C° 0 mm 9 mps 764 mmHg 62%
    20:00 +18°C° 0 mm 9 mps 764 mmHg 63%
    21:00 +17°C° 0 mm 9 mps 765 mmHg 64%
    22:00 +17°C° 0 mm 9 mps 765 mmHg 65%
    23:00 +17°C° 0 mm 8 mps 765 mmHg 65%

    Day after tomorrow, 12 April, Sunday

    Time Temperature Precipitation Wind Pressure Humidity
    00:00 +17°C° 0 mm 8 mps 765 mmHg 65%
    01:00 +17°C° 0 mm 7 mps 764 mmHg 66%
    02:00 +17°C° 0 mm 6 mps 764 mmHg 65%
    03:00 +16°C° 0 mm 6 mps 764 mmHg 64%
    04:00 +16°C° 0 mm 5 mps 764 mmHg 63%
    05:00 +16°C° 0 mm 5 mps 765 mmHg 60%
    06:00 +18°C° 0 mm 4 mps 765 mmHg 57%
    07:00 +18°C° 0 mm 4 mps 765 mmHg 54%
    08:00 +19°C° 0 mm 4 mps 765 mmHg 53%
    09:00 +20°C° 0 mm 5 mps 765 mmHg 51%
    10:00 +20°C° 0 mm 5 mps 765 mmHg 49%
    11:00 +21°C° 0 mm 6 mps 765 mmHg 48%
    12:00 +22°C° 0 mm 6 mps 764 mmHg 47%
    13:00 +22°C° 0 mm 7 mps 764 mmHg 46%
    14:00 +22°C° 0 mm 7 mps 764 mmHg 50%
    15:00 +21°C° 0 mm 8 mps 763 mmHg 53%
    16:00 +21°C° 0 mm 9 mps 763 mmHg 57%
    17:00 +19°C° 0 mm 9 mps 763 mmHg 60%
    18:00 +18°C° 0 mm 9 mps 763 mmHg 62%
    19:00 +18°C° 0 mm 10 mps 762 mmHg 64%
    20:00 +18°C° 0 mm 10 mps 763 mmHg 63%
    21:00 +18°C° 0 mm 10 mps 763 mmHg 62%
    22:00 +18°C° 0 mm 10 mps 763 mmHg 61%
    23:00 +18°C° 0 mm 9 mps 763 mmHg 60%

    13 April, Monday

    Time Temperature Precipitation Wind Pressure Humidity
    00:00 +17°C° 0 mm 8 mps 763 mmHg 60%
    01:00 +17°C° 0 mm 7 mps 762 mmHg 59%
    02:00 +17°C° 0 mm 7 mps 762 mmHg 59%
    03:00 +17°C° 0 mm 6 mps 762 mmHg 60%
    04:00 +17°C° 0 mm 5 mps 761 mmHg 60%
    05:00 +18°C° 0 mm 4 mps 761 mmHg 58%
    06:00 +18°C° 0 mm 4 mps 761 mmHg 56%
    07:00 +19°C° 0 mm 3 mps 761 mmHg 54%
    08:00 +20°C° 0 mm 3 mps 761 mmHg 49%
    09:00 +22°C° 0 mm 4 mps 761 mmHg 44%
    10:00 +23°C° 0 mm 4 mps 761 mmHg 39%
    11:00 +25°C° 0 mm 4 mps 761 mmHg 37%
    12:00 +26°C° 0 mm 4 mps 760 mmHg 36%
    13:00 +27°C° 0 mm 4 mps 760 mmHg 34%
    14:00 +27°C° 0 mm 5 mps 759 mmHg 37%
    15:00 +27°C° 0 mm 7 mps 759 mmHg 40%
    16:00 +27°C° 0 mm 8 mps 758 mmHg 43%
    17:00 +26°C° 0 mm 8 mps 758 mmHg 45%
    18:00 +26°C° 0 mm 9 mps 758 mmHg 48%
    19:00 +24°C° 0 mm 9 mps 757 mmHg 50%
    20:00 +26°C° 0 mm 9 mps 757 mmHg 44%
    21:00 +26°C° 0 mm 10 mps 757 mmHg 39%
    22:00 +27°C° 0 mm 10 mps 757 mmHg 33%
    23:00 +26°C° 0 mm 9 mps 756 mmHg 33%

    14 April, Tuesday

    Time Temperature Precipitation Wind Pressure Humidity
    00:00 +26°C° 0 mm 8 mps 755 mmHg 34%
    01:00 +26°C° 0 mm 8 mps 755 mmHg 34%
    02:00 +26°C° 0 mm 7 mps 754 mmHg 33%
    03:00 +26°C° 0 mm 6 mps 754 mmHg 32%
    04:00 +26°C° 0 mm 5 mps 754 mmHg 31%
    05:00 +27°C° 0 mm 6 mps 754 mmHg 29%
    06:00 +27°C° 0 mm 6 mps 754 mmHg 27%
    07:00 +28°C° 0 mm 6 mps 754 mmHg 24%
    08:00 +32°C° 0 mm 8 mps 754 mmHg 20%
    09:00 +34°C° 0 mm 10 mps 754 mmHg 17%
    10:00 +38°C° 0 mm 12 mps 754 mmHg 13%
    11:00 +39°C° 0 mm 11 mps 754 mmHg 12%
    12:00 +40°C° 0 mm 9 mps 754 mmHg 12%
    13:00 +41°C° 0 mm 8 mps 754 mmHg 11%
    14:00 +41°C° 0 mm 7 mps 754 mmHg 11%
    15:00 +43°C° 0 mm 7 mps 753 mmHg 11%
    16:00 +42°C° 0 mm 6 mps 753 mmHg 11%
    17:00 +40°C° 0 mm 5 mps 753 mmHg 14%
    18:00 +37°C° 0 mm 4 mps 753 mmHg 16%
    19:00 +35°C° 0 mm 3 mps 753 mmHg 19%
    20:00 +34°C° 0 mm 3 mps 753 mmHg 20%
    21:00 +34°C° 0 mm 4 mps 754 mmHg 20%
    22:00 +33°C° 0 mm 5 mps 755 mmHg 21%
    23:00 +33°C° 0 mm 4 mps 755 mmHg 22%

    15 April, Wednesday

    Time Temperature Precipitation Wind Pressure Humidity
    00:00 +31°C° 0 mm 3 mps 756 mmHg 23%
    01:00 +31°C° 0 mm 3 mps 756 mmHg 24%
    02:00 +29°C° 0 mm 4 mps 756 mmHg 34%
    03:00 +27°C° 0 mm 5 mps 756 mmHg 44%
    04:00 +24°C° 0 mm 6 mps 756 mmHg 54%
    05:00 +25°C° 0 mm 5 mps 756 mmHg 56%
    06:00 +23°C° 0 mm 4 mps 757 mmHg 58%
    07:00 +24°C° 0 mm 2 mps 757 mmHg 60%
    08:00 +25°C° 0 mm 3 mps 758 mmHg 57%
    09:00 +26°C° 0 mm 4 mps 758 mmHg 53%
    10:00 +27°C° 0 mm 4 mps 758 mmHg 50%
    11:00 +28°C° 0 mm 3 mps 758 mmHg 47%
    12:00 +29°C° 0 mm 3 mps 758 mmHg 44%
    13:00 +30°C° 0 mm 2 mps 758 mmHg 41%
    14:00 +29°C° 0 mm 3 mps 758 mmHg 43%
    15:00 +29°C° 0 mm 3 mps 758 mmHg 45%
    16:00 +28°C° 0 mm 4 mps 758 mmHg 47%
    17:00 +28°C° 0 mm 4 mps 758 mmHg 46%
    18:00 +28°C° 0 mm 4 mps 758 mmHg 44%
    19:00 +27°C° 0 mm 5 mps 758 mmHg 43%
    20:00 +28°C° 0 mm 5 mps 758 mmHg 43%
    21:00 +28°C° 0 mm 5 mps 759 mmHg 42%
    22:00 +28°C° 0 mm 5 mps 759 mmHg 41%
    23:00 +29°C° 0 mm 5 mps 760 mmHg 38%
    Show more